Time,TemperatureF,DewpointF,PressureIn,WindDirection,WindDirectionDegrees,WindSpeedMPH,WindSpeedGustMPH,Humidity,HourlyPrecipIn,Conditions,Clouds,dailyrainin,SoftwareType,DateUTC
2016-12-11 00:01:00,64.8,58.0,30.10,NE,45,0.0,-999.0,81,0.00,,,0.00,,2016-12-11 05:01:00,
2016-12-11 00:07:00,63.9,58.0,30.10,ESE,113,0.0,-999.0,81,0.00,,,0.00,,2016-12-11 05:07:00,
2016-12-11 00:12:00,63.9,58.0,30.09,ESE,113,0.0,-999.0,81,0.00,,,0.00,,2016-12-11 05:12:00,
2016-12-11 00:18:00,64.1,58.0,30.10,ESE,113,0.0,-999.0,81,0.00,,,0.00,,2016-12-11 05:18:00,
2016-12-11 00:26:00,64.1,58.0,30.09,SE,135,0.0,-999.0,81,0.00,,,0.00,,2016-12-11 05:26:00,
2016-12-11 01:07:00,64.1,58.0,30.08,North,0,0.0,-999.0,81,0.00,,,0.00,,2016-12-11 06:07:00,
2016-12-11 01:13:00,63.9,58.0,30.07,ESE,113,0.0,-999.0,81,0.00,,,0.00,,2016-12-11 06:13:00,
2016-12-11 01:18:00,63.9,58.0,30.07,SE,135,0.0,-999.0,81,0.00,,,0.00,,2016-12-11 06:18:00,
2016-12-11 01:24:00,63.9,58.0,30.07,ESE,113,0.0,-999.0,83,0.00,,,0.00,,2016-12-11 06:24:00,
2016-12-11 01:29:00,63.9,58.0,30.07,ENE,68,0.0,-999.0,83,0.00,,,0.00,,2016-12-11 06:29:00,
2016-12-11 01:35:00,63.9,58.0,30.07,SE,135,0.0,-999.0,83,0.00,,,0.00,,2016-12-11 06:35:00,
2016-12-11 03:09:00,63.0,58.0,30.04,NNW,338,6.0,-999.0,85,0.00,,,0.00,,2016-12-11 08:09:00,
2016-12-11 03:14:00,63.4,58.0,30.04,ENE,68,4.0,-999.0,85,0.00,,,0.00,,2016-12-11 08:14:00,
2016-12-11 03:20:00,63.6,59.0,30.04,ESE,113,0.0,-999.0,85,0.00,,,0.00,,2016-12-11 08:20:00,
2016-12-11 03:25:00,63.9,59.0,30.04,SE,135,0.0,-999.0,85,0.00,,,0.00,,2016-12-11 08:25:00,
2016-12-11 03:31:00,63.9,59.0,30.04,ESE,113,0.0,-999.0,85,0.00,,,0.00,,2016-12-11 08:31:00,
2016-12-11 03:36:00,64.1,59.0,30.04,ESE,113,0.0,-999.0,85,0.00,,,0.00,,2016-12-11 08:36:00,
2016-12-11 03:42:00,63.9,59.0,30.03,ESE,113,0.0,-999.0,85,0.00,,,0.00,,2016-12-11 08:42:00,
2016-12-11 03:53:00,64.1,59.0,30.04,ESE,113,0.0,-999.0,85,0.00,,,0.00,,2016-12-11 08:53:00,
2016-12-11 03:59:00,64.1,59.0,30.03,ESE,113,0.0,-999.0,85,0.00,,,0.00,,2016-12-11 08:59:00,
2016-12-11 04:28:00,63.6,59.0,30.03,ESE,113,0.0,-999.0,85,0.00,,,0.00,,2016-12-11 09:28:00,
2016-12-11 04:39:00,63.9,59.0,30.02,SE,135,0.0,-999.0,85,0.00,,,0.00,,2016-12-11 09:39:00,
2016-12-11 04:45:00,63.9,59.0,30.03,ESE,113,0.0,-999.0,85,0.00,,,0.00,,2016-12-11 09:45:00,
2016-12-11 04:50:00,64.4,59.0,30.02,ESE,113,0.0,-999.0,85,0.00,,,0.00,,2016-12-11 09:50:00,
2016-12-11 04:56:00,63.9,59.0,30.03,ESE,113,0.0,-999.0,85,0.00,,,0.00,,2016-12-11 09:56:00,
2016-12-11 05:02:00,64.1,59.0,30.02,ESE,113,0.0,-999.0,85,0.00,,,0.00,,2016-12-11 10:02:00,
2016-12-11 05:07:00,64.1,59.0,30.02,ESE,113,0.0,-999.0,85,0.00,,,0.00,,2016-12-11 10:07:00,
2016-12-11 05:13:00,64.1,59.0,30.03,ESE,113,0.0,-999.0,86,0.00,,,0.00,,2016-12-11 10:13:00,
2016-12-11 05:18:00,64.4,60.0,30.02,ESE,113,0.0,-999.0,86,0.00,,,0.00,,2016-12-11 10:18:00,
2016-12-11 05:24:00,64.4,60.0,30.02,ESE,113,0.0,-999.0,86,0.00,,,0.00,,2016-12-11 10:24:00,
2016-12-11 05:29:00,64.6,60.0,30.02,NE,45,0.0,-999.0,86,0.00,,,0.00,,2016-12-11 10:29:00,
2016-12-11 05:35:00,64.8,60.0,30.02,ESE,113,0.0,-999.0,86,0.00,,,0.00,,2016-12-11 10:35:00,
2016-12-11 05:40:00,64.9,60.0,30.02,ESE,113,0.0,-999.0,85,0.00,,,0.00,,2016-12-11 10:40:00,
2016-12-11 05:45:00,64.9,60.0,30.02,ESE,113,0.0,-999.0,85,0.00,,,0.00,,2016-12-11 10:45:00,
2016-12-11 05:51:00,64.9,60.0,30.03,NE,45,0.0,-999.0,85,0.00,,,0.00,,2016-12-11 10:51:00,
2016-12-11 05:56:00,64.9,60.0,30.03,ESE,113,0.0,-999.0,85,0.00,,,0.00,,2016-12-11 10:56:00,
2016-12-11 06:02:00,64.9,60.0,30.02,ESE,113,0.0,-999.0,85,0.00,,,0.00,,2016-12-11 11:02:00,
2016-12-11 06:07:00,64.9,60.0,30.02,ESE,113,0.0,-999.0,85,0.00,,,0.00,,2016-12-11 11:07:00,
2016-12-11 06:12:00,65.0,60.0,30.03,ESE,113,0.0,-999.0,85,0.00,,,0.00,,2016-12-11 11:12:00,
2016-12-11 06:18:00,65.0,60.0,30.02,ESE,113,0.0,-999.0,85,0.00,,,0.00,,2016-12-11 11:18:00,
2016-12-11 06:24:00,64.9,60.0,30.02,ESE,113,0.0,-999.0,85,0.00,,,0.00,,2016-12-11 11:24:00,
2016-12-11 06:29:00,64.8,60.0,30.03,ESE,113,0.0,-999.0,85,0.00,,,0.00,,2016-12-11 11:29:00,
2016-12-11 06:35:00,65.0,60.0,30.02,SE,135,0.0,-999.0,85,0.00,,,0.00,,2016-12-11 11:35:00,
2016-12-11 06:40:00,65.2,60.0,30.03,SE,135,0.0,-999.0,85,0.00,,,0.00,,2016-12-11 11:40:00,
2016-12-11 06:46:00,65.2,60.0,30.03,SE,135,0.0,-999.0,85,0.00,,,0.00,,2016-12-11 11:46:00,
2016-12-11 06:52:00,65.0,60.0,30.03,ESE,113,0.0,-999.0,86,0.00,,,0.00,,2016-12-11 11:52:00,
2016-12-11 06:57:00,65.0,60.0,30.03,ESE,113,0.0,-999.0,86,0.00,,,0.00,,2016-12-11 11:57:00,
2016-12-11 07:03:00,65.0,60.0,30.03,SE,135,0.0,-999.0,86,0.00,,,0.00,,2016-12-11 12:03:00,
2016-12-11 07:09:00,65.0,60.0,30.02,ESE,113,0.0,-999.0,86,0.00,,,0.00,,2016-12-11 12:09:00,
2016-12-11 07:14:00,65.0,60.0,30.02,ESE,113,2.0,-999.0,86,0.00,,,0.00,,2016-12-11 12:14:00,
2016-12-11 07:20:00,65.0,60.0,30.03,ESE,113,0.0,-999.0,86,0.00,,,0.00,,2016-12-11 12:20:00,
2016-12-11 07:25:00,65.0,60.0,30.03,SE,135,0.0,-999.0,86,0.00,,,0.00,,2016-12-11 12:25:00,
2016-12-11 07:38:00,65.2,61.0,30.02,ESE,113,0.0,-999.0,86,0.00,,,0.00,,2016-12-11 12:38:00,
2016-12-11 07:46:00,65.2,61.0,30.03,ESE,113,0.0,-999.0,86,0.00,,,0.00,,2016-12-11 12:46:00,
2016-12-11 07:51:00,65.6,61.0,30.03,ESE,113,0.0,-999.0,86,0.00,,,0.00,,2016-12-11 12:51:00,
2016-12-11 07:57:00,65.8,61.0,30.02,ESE,113,0.0,-999.0,86,0.00,,,0.00,,2016-12-11 12:57:00,